FW7395 Weather Reports


time (UTC)temp
F
wind
direction
speed
knots
gust
knots
rain 1hr
in
rain 24hr
in
rain mn
in
humidity
%
barometer
mb
20260902144008 89 248 0.9 0.9 0.00 0.00 0.00 45 1015.8
20260902143507 89 248 0.0 1.7 0.00 0.00 0.00 44 1015.8
20260902143007 89 283 0.0 1.7 0.00 0.00 0.00 43 1015.9
20260902142007 90 225 0.0 4.3 0.00 0.00 0.00 42 1016.2
20260902141507 91 234 1.7 4.3 0.00 0.00 0.00 41 1016.0
20260902141007 91 304 0.9 2.6 0.00 0.00 0.00 41 1016.0
20260902140507 91 282 1.7 4.3 0.00 0.00 0.00 41 1016.0
20260902135507 90 120 0.9 1.7 0.00 0.00 0.00 43 1016.2
20260902135008 89 248 0.0 0.9 0.00 0.00 0.00 45 1016.2
20260902134508 90 248 0.9 1.7 0.00 0.00 0.00 45 1016.2
20260902134009 91 248 0.9 2.6 0.00 0.00 0.00 42 1016.2
20260902133510 91 284 0.9 1.7 0.00 0.00 0.00 44 1016.5
20260902133011 91 202 0.0 0.9 0.00 0.00 0.00 43 1016.4
20260902132507 92 147 0.0 1.7 0.00 0.00 0.00 41 1016.4
20260902132007 93 204 0.9 2.6 0.00 0.00 0.00 40 1016.6
20260902131507 92 135 0.0 0.9 0.00 0.00 0.00 40 1016.5
20260902131008 92 292 0.0 2.6 0.00 0.00 0.00 42 1016.7
20260902130506 92 128 0.9 2.6 0.00 0.00 0.00 41 1016.8
20260902130007 92 270 0.9 0.9 0.00 0.00 0.00 42 1016.8
20260902125507 91 199 0.9 0.9 0.00 0.00 0.00 44 1016.9
20260902125007 90 155 0.9 1.7 0.00 0.00 0.00 44 1016.8
20260902124507 91 106 0.9 2.6 0.00 0.00 0.00 41 1017.0
20260902124007 91 144 0.9 2.6 0.00 0.00 0.00 43 1017.0
20260902123507 92 279 0.9 2.6 0.00 0.00 0.00 42 1016.9
20260902123007 92 274 0.9 1.7 0.00 0.00 0.00 42 1017.0
20260902122507 92 285 0.9 1.7 0.00 0.00 0.00 41 1017.1
20260902122007 91 2 0.9 2.6 0.00 0.00 0.00 44 1017.0
20260902121507 90 264 1.7 2.6 0.00 0.00 0.00 44 1017.3
20260902121008 90 248 0.9 5.2 0.00 0.00 0.00 44 1017.2
20260902120506 91 248 2.6 5.2 0.00 0.00 0.00 43 1017.2
20260902120006 91 248 0.0 1.7 0.00 0.00 0.00 42 1017.2
20260902115007 91 168 0.9 2.6 0.00 0.00 0.00 42 1017.4
20260902114507 91 158 0.9 2.6 0.00 0.00 0.00 42 1017.3
20260902114007 91 58 0.9 2.6 0.00 0.00 0.00 42 1017.6
20260902113508 91 286 0.9 2.6 0.00 0.00 0.00 41 1017.6
20260902113007 90 124 0.9 2.6 0.00 0.00 0.00 43 1017.7
20260902112507 91 135 0.9 2.6 0.00 0.00 0.00 41 1017.5
20260902112007 91 123 0.9 1.7 0.00 0.00 0.00 41 1017.7
20260902111507 91 135 0.9 2.6 0.00 0.00 0.00 42 1017.6
20260902111007 90 343 0.9 2.6 0.00 0.00 0.00 42 1017.7
20260902105506 89 176 0.9 4.3 0.00 0.00 0.00 43 1018.0
20260902105006 90 305 0.9 1.7 0.00 0.00 0.00 42 1018.1
20260902104506 91 22 0.9 2.6 0.00 0.00 0.00 40 1018.4
20260902104007 91 112 0.9 2.6 0.00 0.00 0.00 40 1018.3
20260902103507 90 179 0.9 2.6 0.00 0.00 0.00 40 1018.2
20260902103007 89 172 0.9 2.6 0.00 0.00 0.00 43 1018.3
20260902102007 88 224 0.0 1.7 0.00 0.00 0.00 44 1018.6
20260902101508 88 158 0.9 1.7 0.00 0.00 0.00 43 1018.5
20260902101009 88 80 0.0 2.6 0.00 0.00 0.00 44 1018.4
20260902095006 87 158 0.9 1.7 0.00 0.00 0.00 46 1018.7
20260902094007 86 180 0.0 0.9 0.00 0.00 0.00 47 1018.7
20260902093507 86 248 0.9 2.6 0.00 0.00 0.00 48 1018.8
20260902093006 87 134 0.9 2.6 0.00 0.00 0.00 47 1018.6
20260902092506 86 119 0.9 2.6 0.00 0.00 0.00 49 1018.8
20260902092007 86 338 0.0 1.7 0.00 0.00 0.00 49 1018.9
20260902091506 86 107 0.9 2.6 0.00 0.00 0.00 47 1018.9
20260902091007 86 26 0.9 2.6 0.00 0.00 0.00 48 1018.9
20260902090506 87 6 0.9 1.7 0.00 0.00 0.00 49 1018.8
20260902090006 86 175 0.9 2.6 0.00 0.00 0.00 48 1018.9
20260902085006 85 159 0.9 2.6 0.00 0.00 0.00 49 1018.8
20260902084507 84 180 0.0 1.7 0.00 0.00 0.00 53 1019.0
20260902084009 84 165 0.9 2.6 0.00 0.00 0.00 52 1018.8
20260902083509 84 46 0.9 2.6 0.00 0.00 0.00 52 1018.8
20260902083009 84 0 0.0 0.9 0.00 0.00 0.00 52 1018.8
20260902082506 83 121 0.0 1.7 0.00 0.00 0.00 53 1018.7
20260902082006 83 158 0.9 2.6 0.00 0.00 0.00 51 1018.8
20260902081508 82 158 0.0 1.7 0.00 0.00 0.00 53 1018.6
20260902081007 81 139 0.0 1.7 0.00 0.00 0.00 54 1018.6
20260902080506 80 68 0.0 0.9 0.00 0.00 0.00 55 1018.6
20260902075507 79 158 0.9 1.7 0.00 0.00 0.00 57 1018.7
20260902074506 79 90 0.0 0.9 0.00 0.00 0.00 57 1018.7
20260902074006 79 75 0.9 0.9 0.00 0.00 0.00 58 1018.5
20260902073509 78 60 0.0 0.9 0.00 0.00 0.00 59 1018.8
20260902073006 78 45 0.0 0.9 0.00 0.00 0.00 59 1018.6
20260902072506 78 45 0.0 2.6 0.00 0.00 0.00 61 1018.6
20260902072006 77 135 0.0 1.7 0.00 0.00 0.00 62 1018.4
20260902071507 77 45 0.0 0.9 0.00 0.00 0.00 62 1018.6
20260902071010 76 134 0.0 0.9 0.00 0.00 0.00 63 1018.4
20260902070506 76 135 0.9 1.7 0.00 0.00 0.00 64 1018.4
20260902070009 75 22 0.0 0.9 0.00 0.00 0.00 66 1018.4
20260902065507 75 22 0.0 0.9 0.00 0.00 0.00 67 1018.5
20260902065008 75 22 0.0 0.9 0.00 0.00 0.00 67 1018.2
20260902064007 74 22 0.0 0.9 0.00 0.00 0.00 68 1018.4
20260902063508 74 22 0.0 0.9 0.00 0.00 0.00 69 1018.5
20260902063008 73 4 0.0 0.9 0.00 0.00 0.00 69 1018.6
20260902062508 73 0 0.0 0.9 0.00 0.00 0.00 71 1018.5
20260902062007 72 0 0.0 0.9 0.00 0.00 0.00 71 1018.4
20260902061507 72 0 0.0 0.9 0.00 0.00 0.00 73 1018.3
20260902061007 71 0 0.0 0.9 0.00 0.00 0.00 73 1018.3
20260902060507 71 0 0.0 0.9 0.00 0.00 0.00 77 1018.4
20260902060007 71 0 0.0 0.9 0.00 0.00 0.00 77 1018.3
20260902055007 70 0 0.0 0.9 0.00 0.00 0.00 77 1018.2
20260902054507 70 0 0.0 0.9 0.00 0.00 0.00 78 1018.2
20260902054008 69 0 0.0 0.9 0.00 0.00 0.00 79 1018.1
20260902053509 69 0 0.0 0.9 0.00 0.00 0.00 78 1018.0
20260902053007 69 0 0.0 0.9 0.00 0.00 0.00 78 1018.0
20260902052507 69 0 0.0 0.9 0.00 0.00 0.00 78 1018.0
20260902052007 69 0 0.0 0.9 0.00 0.00 0.00 78 1017.8
20260902051507 68 0 0.0 0.9 0.00 0.00 0.00 79 1017.9
20260902051007 68 0 0.0 0.0 0.00 0.00 0.00 81 1017.8
20260902050506 68 0 0.0 0.0 0.00 0.00 0.00 81 1017.9
20260902050008 68 0 0.0 0.0 0.00 0.00 0.00 80 1017.8
20260902045508 68 0 0.0 0.0 0.00 0.00 0.00 81 1017.8
20260902045007 68 0 0.0 0.9 0.00 0.00 0.00 81 1017.9
20260902044008 68 0 0.0 0.9 0.00 0.00 0.00 81 1017.7
20260902043508 68 0 0.0 0.9 0.00 0.00 0.00 81 1017.6
20260902043007 68 0 0.0 0.9 0.00 0.00 0.00 81 1017.8
20260902042509 68 0 0.0 0.9 0.00 0.00 0.00 81 1017.6
20260902042008 68 0 0.0 0.9 0.00 0.00 0.00 81 1017.5
20260902041507 68 0 0.0 0.0 0.00 0.00 0.00 81 1017.8
20260902041008 68 0 0.0 0.9 0.00 0.00 0.00 81 1017.6
20260902040007 68 0 0.0 0.9 0.00 0.00 0.00 81 1017.7
20260902035507 68 0 0.0 0.9 0.00 0.00 0.00 81 1017.9
20260902035009 68 0 0.0 0.9 0.00 0.00 0.00 81 1017.7
20260902034508 68 0 0.0 0.9 0.00 0.00 0.00 81 1017.7
20260902034007 69 0 0.0 0.9 0.00 0.00 0.00 81 1017.6
20260902033507 69 0 0.0 0.9 0.00 0.00 0.00 80 1017.7
20260902033007 69 0 0.0 0.0 0.00 0.00 0.00 80 1017.7
20260902032509 69 0 0.0 0.0 0.00 0.00 0.00 80 1017.7
20260902032008 69 0 0.0 0.0 0.00 0.00 0.00 80 1017.8
20260902031507 69 0 0.0 0.0 0.00 0.00 0.00 80 1017.7
20260902031007 69 0 0.0 0.9 0.00 0.00 0.00 80 1017.7
20260902030506 69 0 0.0 0.9 0.00 0.00 0.00 80 1017.7
20260902030013 69 0 0.0 0.9 0.00 0.00 0.00 80 1017.6
20260902025510 69 0 0.0 0.9 0.00 0.00 0.00 80 1017.6
20260902025008 69 0 0.0 0.9 0.00 0.00 0.00 80 1017.6
20260902024507 69 0 0.0 0.0 0.00 0.00 0.00 79 1017.5
20260902024007 70 0 0.0 0.0 0.00 0.00 0.00 79 1017.5
20260902022506 70 0 0.0 0.9 0.00 0.00 0.00 79 1017.6
20260902022007 70 0 0.0 0.0 0.00 0.00 0.00 78 1017.5
20260902021007 70 0 0.0 0.0 0.00 0.00 0.00 79 1017.6
20260902020507 70 0 0.0 0.9 0.00 0.00 0.00 79 1017.3
20260902015506 70 0 0.0 0.0 0.00 0.00 0.00 78 1017.4
20260902015006 70 0 0.0 0.0 0.00 0.00 0.00 79 1017.5
20260902014508 70 0 0.0 0.0 0.00 0.00 0.00 79 1017.4
20260902014007 70 0 0.0 0.0 0.00 0.00 0.00 79 1017.4
20260902013507 70 0 0.0 0.0 0.00 0.00 0.00 79 1017.2
20260902013007 70 0 0.0 0.9 0.00 0.00 0.00 79 1017.6
20260902012507 70 0 0.0 0.9 0.00 0.00 0.00 79 1017.4
20260902012008 70 0 0.0 0.9 0.00 0.00 0.00 79 1017.5
20260902011507 70 0 0.0 0.9 0.00 0.00 0.00 79 1017.5
20260902011007 70 0 0.0 0.9 0.00 0.00 0.00 79 1017.5
20260902010506 70 0 0.0 0.9 0.00 0.00 0.00 79 1017.5
20260902010006 71 0 0.0 0.9 0.00 0.00 0.00 79 1017.6
20260902005506 70 0 0.0 0.9 0.00 0.00 0.00 79 1017.5
20260902005007 70 0 0.0 0.9 0.00 0.00 0.00 79 1017.6
20260902004007 71 0 0.0 0.9 0.00 0.00 0.00 79 1017.5
20260902003507 71 0 0.0 0.9 0.00 0.00 0.00 78 1017.4
20260902003007 71 0 0.0 0.9 0.00 0.00 0.00 78 1017.4
20260902002506 71 0 0.0 0.9 0.00 0.00 0.00 78 1017.2
20260902002010 72 0 0.0 0.9 0.00 0.00 0.00 79 1017.2
20260902001506 72 0 0.0 0.9 0.00 0.00 0.00 79 1017.4
20260902001007 71 0 0.0 0.9 0.00 0.00 0.00 79 1017.2
20260902000506 72 0 0.0 0.9 0.00 0.00 0.00 79 1017.2
20260902000007 72 0 0.0 0.9 0.00 0.00 0.00 79 1017.4
20260901235506 72 0 0.0 0.0 0.00 0.00 0.00 79 1017.4
20260901235007 72 0 0.0 0.0 0.00 0.00 0.00 79 1017.4
20260901234007 72 0 0.0 0.0 0.00 0.00 0.00 79 1017.4
20260901232506 72 0 0.0 0.0 0.00 0.00 0.00 79 1017.4
20260901231506 72 0 0.0 0.0 0.00 0.00 0.00 78 1017.2
20260901231008 73 0 0.0 0.0 0.00 0.00 0.00 78 1017.4
20260901230506 73 0 0.0 0.9 0.00 0.00 0.00 78 1017.2
20260901230008 73 0 0.0 0.9 0.00 0.00 0.00 77 1017.3
20260901225508 73 0 0.0 0.9 0.00 0.00 0.00 77 1017.3
20260901225006 73 0 0.0 0.0 0.00 0.00 0.00 77 1017.3
20260901224506 73 0 0.0 0.0 0.00 0.00 0.00 77 1017.4
20260901224006 73 0 0.0 0.0 0.00 0.00 0.00 77 1017.3
20260901223508 73 0 0.0 0.0 0.00 0.00 0.00 77 1017.3
20260901222006 73 0 0.0 0.0 0.00 0.00 0.00 76 1017.3
20260901221507 73 0 0.0 0.0 0.00 0.00 0.00 76 1017.1
20260901221008 73 0 0.0 0.0 0.00 0.00 0.00 75 1017.3
20260901220510 73 0 0.0 0.0 0.00 0.00 0.00 75 1017.2
20260901220007 74 0 0.0 0.0 0.00 0.00 0.00 75 1017.2
20260901215013 74 0 0.0 0.9 0.00 0.00 0.00 75 1017.3
20260901214510 74 0 0.0 0.0 0.00 0.00 0.00 74 1017.2
20260901214008 74 0 0.0 0.0 0.00 0.00 0.00 74 1017.0
20260901213008 75 0 0.0 0.9 0.00 0.00 0.00 72 1017.2
20260901211508 75 0 0.0 0.9 0.00 0.00 0.00 72 1017.2
20260901211009 76 0 0.0 0.0 0.00 0.00 0.00 72 1017.2
20260901210507 76 0 0.0 0.9 0.00 0.00 0.00 71 1017.2
20260901210007 76 0 0.0 0.0 0.00 0.00 0.00 70 1017.2
20260901205508 76 0 0.0 0.0 0.00 0.00 0.00 69 1017.2
20260901204507 77 0 0.0 0.9 0.00 0.00 0.00 69 1017.2
20260901204008 76 0 0.0 0.9 0.00 0.00 0.00 69 1017.2
20260901203510 76 0 0.0 0.0 0.00 0.00 0.00 69 1017.3
20260901202507 76 0 0.0 0.0 0.00 0.00 0.00 68 1017.1
20260901202008 76 0 0.0 0.0 0.00 0.00 0.00 68 1017.1
20260901201507 77 0 0.0 0.0 0.00 0.00 0.00 68 1017.1
20260901201007 77 0 0.0 0.9 0.00 0.00 0.00 67 1017.3
20260901200506 77 0 0.0 0.9 0.00 0.00 0.00 67 1016.9
20260901195507 78 0 0.0 0.0 0.00 0.00 0.00 66 1017.0
20260901195008 78 0 0.0 0.9 0.00 0.00 0.00 65 1016.9
20260901194507 79 0 0.0 0.9 0.00 0.00 0.00 64 1016.9
20260901194008 79 0 0.0 0.9 0.00 0.00 0.00 63 1016.8
20260901193507 80 0 0.0 0.9 0.00 0.00 0.00 63 1016.9
20260901193007 80 0 0.0 0.9 0.00 0.00 0.00 62 1016.7
20260901192508 80 0 0.0 0.9 0.00 0.00 0.00 62 1016.9
20260901192008 80 0 0.0 0.9 0.00 0.00 0.00 62 1016.8
20260901191507 80 0 0.0 0.9 0.00 0.00 0.00 62 1016.8
20260901191007 80 0 0.0 0.9 0.00 0.00 0.00 62 1016.7
20260901185507 80 22 0.0 0.9 0.00 0.00 0.00 63 1016.4
20260901185007 80 22 0.0 0.9 0.00 0.00 0.00 62 1016.2
20260901184508 80 22 0.0 0.9 0.00 0.00 0.00 62 1016.1
20260901184007 80 22 0.0 0.9 0.00 0.00 0.00 61 1016.0
20260901183507 81 45 0.0 0.9 0.00 0.00 0.00 60 1016.0
20260901183008 81 45 0.0 0.9 0.00 0.00 0.00 60 1016.0
20260901182507 81 45 0.0 0.9 0.00 0.00 0.00 60 1016.0
20260901182007 81 45 0.0 0.9 0.00 0.00 0.00 60 1016.0
20260901181508 82 21 0.0 0.9 0.00 0.00 0.00 60 1015.9
20260901181010 82 45 0.0 0.9 0.00 0.00 0.00 59 1015.8
20260901180506 82 0 0.0 0.9 0.00 0.00 0.00 59 1015.8
20260901180007 82 22 0.0 0.9 0.00 0.00 0.00 59 1015.6
20260901175007 83 341 0.0 0.9 0.00 0.00 0.00 58 1015.6
20260901174507 83 338 0.0 0.9 0.00 0.00 0.00 58 1015.6
20260901174008 84 338 0.0 0.9 0.00 0.00 0.00 57 1015.6
20260901173507 84 338 0.0 0.9 0.00 0.00 0.00 56 1015.6
20260901172007 86 22 0.0 0.9 0.00 0.00 0.00 53 1015.3
20260901171507 87 22 0.0 0.9 0.00 0.00 0.00 52 1015.5
20260901171007 87 0 0.0 0.9 0.00 0.00 0.00 52 1015.4
20260901170506 88 22 0.0 0.9 0.00 0.00 0.00 51 1015.2
20260901170008 88 15 0.9 1.7 0.00 0.00 0.00 50 1015.3
20260901165007 89 53 0.9 1.7 0.00 0.00 0.00 49 1015.2
20260901164506 89 20 0.9 2.6 0.00 0.00 0.00 48 1015.3
20260901164007 89 98 0.0 1.7 0.00 0.00 0.00 48 1015.4
20260901162506 89 0 0.9 2.6 0.00 0.00 0.00 49 1015.4
20260901161507 88 73 0.9 2.6 0.00 0.00 0.00 50 1015.2
20260901161007 88 22 0.0 0.9 0.00 0.00 0.00 51 1015.2
20260901160506 88 8 0.0 0.9 0.00 0.00 0.00 51 1015.4
20260901160007 88 55 0.0 1.7 0.00 0.00 0.00 50 1015.4
20260901155507 89 114 0.0 0.9 0.00 0.00 0.00 50 1015.3
20260901155007 89 193 0.0 5.2 0.00 0.00 0.00 48 1015.4
20260901154507 90 165 0.9 5.2 0.00 0.00 0.00 47 1015.3
20260901153507 90 220 0.0 1.7 0.00 0.00 0.00 47 1015.5
20260901153007 90 198 0.9 2.6 0.00 0.00 0.00 47 1015.4
20260901152009 90 151 0.9 2.6 0.00 0.00 0.00 48 1015.6
20260901151506 89 353 0.0 2.6 0.00 0.00 0.00 48 1015.7
20260901151006 90 315 1.7 2.6 0.00 0.00 0.00 48 1015.6
20260901150506 90 357 0.9 2.6 0.00 0.00 0.00 48 1015.6
20260901144506 90 8 0.9 2.6 0.00 0.00 0.00 47 1015.6